This is the latest recevied weather packets stored in our database for station/object PD2BVG. If no packets are shown the sender has not sent any weather packets the latest 1 day(s).
| Time | Temp. | Humidity | Pressure | Rain* | Wind** | Luminosity | Snow |
|---|---|---|---|---|---|---|---|
| 1777954387 | 11.11° C | 90% | 1012.4 hPa | 0 mm | 2.24 m/s, 340° | 0 W/m² | - |
| 1777954328 | 11.11° C | 90% | 1012.4 hPa | 0 mm | 2.24 m/s, 337° | 0 W/m² | - |
| 1777954266 | 11.11° C | 90% | 1012.4 hPa | 0 mm | 2.24 m/s, 344° | 0 W/m² | - |
| 1777954206 | 11.11° C | 90% | 1012.4 hPa | 0 mm | 2.24 m/s, 343° | 0 W/m² | - |
| 1777954146 | 11.11° C | 90% | 1012.5 hPa | 0 mm | 2.68 m/s, 333° | 0 W/m² | - |
| 1777954085 | 11.11° C | 90% | 1012.4 hPa | 0 mm | 3.13 m/s, 350° | 0 W/m² | - |
| 1777954025 | 11.11° C | 90% | 1012.4 hPa | 0 mm | 3.58 m/s, 350° | 0 W/m² | - |
| 1777953964 | 11.11° C | 90% | 1012.4 hPa | 0 mm | 3.13 m/s, 331° | 0 W/m² | - |
| 1777953905 | 11.11° C | 90% | 1012.4 hPa | 0 mm | 2.68 m/s, 354° | 0 W/m² | - |
| 1777953843 | 11.11° C | 90% | 1012.4 hPa | 0 mm | 1.79 m/s, 345° | 0 W/m² | - |
| 1777953783 | 11.11° C | 90% | 1012.4 hPa | 0 mm | 1.34 m/s, 348° | 0 W/m² | - |
| 1777953722 | 11.11° C | 90% | 1012.5 hPa | 0 mm | 1.79 m/s, 343° | 0 W/m² | - |
| 1777953661 | 11.11° C | 90% | 1012.5 hPa | 0 mm | 2.68 m/s, 344° | 0 W/m² | - |
| 1777953602 | 11.11° C | 90% | 1012.5 hPa | 0 mm | 2.68 m/s, 344° | 0 W/m² | - |
| 1777953542 | 11.11° C | 90% | 1012.4 hPa | 0 mm | 2.68 m/s, 354° | 0 W/m² | - |
| 1777953481 | 11.11° C | 90% | 1012.4 hPa | 0 mm | 2.68 m/s, 351° | 0 W/m² | - |
| 1777953421 | 11.11° C | 90% | 1012.4 hPa | 0 mm | 2.24 m/s, 0° | 0 W/m² | - |
| 1777953360 | 11.11° C | 90% | 1012.4 hPa | 0 mm | 2.24 m/s, 0° | 0 W/m² | - |
| 1777953300 | 11.11° C | 90% | 1012.4 hPa | 0 mm | 1.79 m/s, 14° | 0 W/m² | - |
| 1777953238 | 11.11° C | 90% | 1012.5 hPa | 0 mm | 1.79 m/s, 24° | 0 W/m² | - |
| 1777953176 | 11.11° C | 90% | 1012.5 hPa | 0 mm | 2.24 m/s, 14° | 0 W/m² | - |
| 1777953116 | 11.11° C | 90% | 1012.4 hPa | 0 mm | 2.24 m/s, 338° | 0 W/m² | - |
| 1777953057 | 11.11° C | 90% | 1012.4 hPa | 0 mm | 1.79 m/s, 20° | 0 W/m² | - |
| 1777952995 | 11.11° C | 90% | 1012.5 hPa | 0 mm | 1.79 m/s, 14° | 0 W/m² | - |
| 1777952937 | 11.11° C | 90% | 1012.5 hPa | 0 mm | 2.24 m/s, 343° | 0 W/m² | - |
* Rain latest hour (hover to see other rain measurements)
** Current wind speed in m/s (hover to see current wind gust speed)